You are listening to:
YSBK ATIS - Bankstown, New South Wales, Australia

YSSY 172230Z 32008KT 9999 FEW025 13/06 Q1007

If stream doesn't start automatically press the play button
If stream stops then reload player then press play